STARLINK-1478, 45755

Orbit data source: Space-Track

STARLINK-1478, 45755 is a payload satellite owned by SpaceX/Seattle (US) in LEO that was launched on Sat, 13 Jun 2020 UTC via an FALCON 9 launch vehicle from the Air Force Eastern Test Range (AFETR). Payload-class satellites include a variety of spacecraft equipped with specific instruments for various scientific and technological missions. These include communications satellites like Starlink; space stations such as the ISS; scientific satellites like the Hubble; Earth observation satellites from companies like Planet Labs, Umbra, and HawkEye 360; GPS; miniature CubeSats for education and research; and military/defense satellites.

Loading next visibility...
Identifier
45755, 2020-038AB
Orbit
LEO
Country
Flag of USUS
Related business
Manufacturer
SpaceX/Seattle
Mission
Operational Commercial Communications
Bus & Motor
STARLINK, Unknown motor
Mass
260 kg wet, ~248 kg dry
Launch date (UTC)
2020-06-13 (5 years ago)
Launch vehicle
FALCON 9
Launch site
Air Force Eastern Test Range (AFETR)
Object type
Payload
Rocket body
Debris
Shape & HBR
Box + 1 Pan, 10.1 m
Radar Cross Section
13.562 m², Large (>1 m²)

Expand to show TLE details & history
Last TLE update: 1 day ago

TLE from 1 day ago
0 STARLINK-1478
1 45755U 20038AB  25302.09940626  .00000157  00000-0  29399-4 0  9996
2 45755  53.0536  87.3490 0001110  78.0311 282.0802 15.06399212296630
Epoch: 2025-10-29T02:23Z
TLE epoch observation values (Epoch: 2025-10-29T02:23:08.700Z)
Latitude
-0.00007°
Longitude
13.88529°
Altitude
547.932 km
Speed
7.589 km/s
True Right ascension
05h 49m 23s
True Declination
0° 00' 00"
Sunlit
Object was in full shadow at epoch
Visualization orbit readout
Latitude
Unknown
Longitude
Unknown
Altitude
Unknown
Speed
Unknown
Apparent Right ascension
Unknown
Apparent Declination
Unknown
Sunlit
N/A
Visualization observer readout
Local Sidereal Time
21:51:55
Azimuth
Unknown
Elevation
Unknown
Doppler factor
Unknown
Orbital elements
Apogee altitude
548.254 km
Perigee altitude
546.716 km
Semi-major axis
6,925.622 km
Eccentricity
0.00011
Inclination
53.0536°
RAAN
87.349°
Arg. of periapsis
78.0311°
True anomaly
282.06776°
Mean anomaly
282.0802°
Eccentric anomaly
282.07398°
Mean motion
3.76578 °/min
Orbital period
95.6 mins
BSTAR
0.000029399
Loading maneuver chart data...
Computing Atmospheric mass density...

Documentation

Showing up to 5 results
|